Hayward, CA

1:32 PM PST on January 23, 2017 (GMT -0800)
Hayward Executive

Weather History for KHWD - February, 2014

Change the Weather History Date:

Sunday, February 2, 2014

  Actual Average Record
Temperature  
Mean Temperature 46 °F 51 °F  
Max Temperature 49 °F 58 °F 69 °F (2005)
Min Temperature 43 °F 44 °F 37 °F (1999)
Degree Days  
Heating Degree Days 19    
Month to date heating degree days 37  
Since 1 July heating degree days 1240  
Cooling Degree Days 0    
Month to date cooling degree days 0  
Year to date cooling degree days 0  
Moisture  
Dew Point 40 °F    
Average Humidity 74    
Maximum Humidity 86    
Minimum Humidity 61    
Precipitation  
Precipitation 0.48 in - 0.68 in (2004)
Month to date precipitation 0.48  
Year to date precipitation 0.48  
Since 1 July precipitation 1.68  
Sea Level Pressure  
Sea Level Pressure 29.95 in    
Wind  
Wind Speed 9 mph (ESE)    
Max Wind Speed 20 mph    
Max Gust Speed 29 mph    
Visibility 8 miles    
Events Rain    
T = Trace of Precipitation, MM = Missing Value Source: NWS Daily Summary

Daily Weather History Graph

Daily Weather History Graph

Search for Another Location

Airport or City:

Trip Planner

Search our weather history database for the weather conditions in past years. The results will help you decide how hot, cold, wet, or windy it might be!

Date:

Astronomy

Feb. 02, 2014 Rise Set
Actual Time 7:11 AM PST 5:33 PM PST
Civil Twilight 6:43 AM PST 6:01 PM PST
Nautical Twilight 6:12 AM PST 6:32 PM PST
Astronomical Twilight 5:41 AM PST 7:03 PM PST
Moon 8:45 AM PST (2/2) 9:18 PM PST (2/2)
Length of Visible Light 11h 17m
Length of Day
10h 22m
Waxing Crescent, 12% of the Moon is Illuminated
Feb 2
Waxing Crescent
Feb 6
First Quarter
Feb 14
Full
Feb 22
Last Quarter
Mar 1
New

Hourly Weather History & Observations

Time (PST) Temp. Windchill Dew Point Humidity Pressure Visibility Wind Dir Wind Speed Gust Speed Precip Events Conditions
12:54 AM 45.0 °F 41.8 °F 37.9 °F 76% 30.08 in 10.0 mi SE 5.8 mph - N/A   Clear
1:54 AM 45.0 °F 42.6 °F 37.0 °F 74% 30.06 in 10.0 mi SE 4.6 mph - N/A   Clear
2:54 AM 44.1 °F 42.5 °F 37.9 °F 79% 30.05 in 10.0 mi ENE 3.5 mph - N/A   Clear
3:54 AM 44.1 °F 39.5 °F 37.9 °F 79% 30.01 in 10.0 mi East 8.1 mph - N/A   Clear
4:54 AM 46.0 °F 41.9 °F 36.0 °F 68% 29.99 in 10.0 mi SE 8.1 mph - N/A   Clear
5:54 AM 48.0 °F - 36.0 °F 63% 29.97 in 10.0 mi SE 11.5 mph - N/A   Overcast
6:54 AM 46.0 °F 41.9 °F 37.0 °F 71% 29.94 in 10.0 mi SE 8.1 mph - 0.00 in Rain Light Rain
7:54 AM 46.0 °F 41.0 °F 37.9 °F 73% 29.95 in 7.0 mi SE 10.4 mph - 0.07 in Rain Light Rain
8:54 AM 46.0 °F 39.9 °F 39.0 °F 76% 29.94 in 7.0 mi SE 13.8 mph - 0.04 in Rain Light Rain
9:54 AM 45.0 °F 38.9 °F 39.0 °F 80% 29.94 in 8.0 mi SE 12.7 mph - 0.03 in Rain Light Rain
10:54 AM 45.0 °F 38.9 °F 39.0 °F 80% 29.93 in 10.0 mi SE 12.7 mph 23.0 mph 0.00 in Rain Light Rain
11:54 AM 46.9 °F - 39.9 °F 77% 29.92 in 8.0 mi ESE 6.9 mph - 0.00 in Rain Light Rain
12:29 PM 46.4 °F 40.4 °F 39.2 °F 76% 29.88 in 3.0 mi SSE 13.8 mph - 0.06 in Rain Rain
12:54 PM 46.0 °F 40.6 °F 41.0 °F 83% 29.91 in 2.5 mi SSE 11.5 mph - 0.15 in Rain Light Rain
1:08 PM 46.4 °F 40.1 °F 42.8 °F 87% 29.87 in 1.2 mi SE 15.0 mph - 0.06 in Rain Heavy Rain
1:19 PM 46.4 °F 41.1 °F 42.8 °F 87% 29.87 in 2.0 mi SE 11.5 mph - 0.09 in Rain Rain
1:54 PM 48.0 °F - 44.1 °F 86% 29.90 in 2.0 mi ESE 8.1 mph - 0.12 in Rain Light Rain
2:01 PM 48.2 °F - 44.6 °F 87% 29.87 in 6.0 mi SE 8.1 mph - 0.00 in Rain Light Rain
2:35 PM 46.4 °F 40.4 °F 42.8 °F 87% 29.86 in 2.5 mi SSE 13.8 mph - 0.05 in Rain Rain
2:54 PM 48.0 °F - 44.1 °F 86% 29.90 in 4.0 mi SE 10.4 mph - 0.07 in Rain Rain
3:54 PM 48.9 °F - 46.0 °F 90% 29.90 in 10.0 mi ENE 6.9 mph - 0.00 in   Overcast
4:54 PM 48.0 °F - 43.0 °F 83% 29.91 in 10.0 mi ENE 10.4 mph - 0.00 in   Mostly Cloudy
5:54 PM 48.0 °F - 42.1 °F 80% 29.92 in 10.0 mi ENE 9.2 mph - N/A   Partly Cloudy
6:54 PM 46.0 °F 41.0 °F 41.0 °F 83% 29.94 in 10.0 mi ENE 10.4 mph - N/A   Partly Cloudy
7:54 PM 46.9 °F - 41.0 °F 80% 29.96 in 10.0 mi ENE 8.1 mph - N/A   Overcast
8:54 PM 46.9 °F - 41.0 °F 80% 29.98 in 10.0 mi NE 8.1 mph - N/A   Mostly Cloudy
9:54 PM 46.9 °F - 41.0 °F 80% 29.99 in 10.0 mi NE 6.9 mph - N/A   Overcast
10:54 PM 46.0 °F 42.5 °F 41.0 °F 83% 30.01 in 10.0 mi NNE 6.9 mph - N/A   Overcast
11:54 PM 46.0 °F 43.1 °F 41.0 °F 83% 30.03 in 10.0 mi North 5.8 mph - N/A   Overcast